This is the latest recevied weather packets stored in our database for station/object W4BOD. If no packets are shown the sender has not sent any weather packets the latest 10 day(s).
| Time | Temp. | Humidity | Pressure | Rain* | Wind** | Luminosity | Snow |
|---|---|---|---|---|---|---|---|
| 1777560781 | 15.56° C | 51% | 1017.2 hPa | 0 mm | - | 716 W/m² | - |
| 1777560478 | 15.56° C | 51% | 1017.3 hPa | 0 mm | - | 703 W/m² | - |
| 1777560176 | 15° C | 51% | 1017.4 hPa | 0 mm | - | 691 W/m² | - |
| 1777559873 | 15.56° C | 50% | 1017.7 hPa | 0 mm | - | 672 W/m² | - |
| 1777559568 | 15° C | 49% | 1017.6 hPa | 0 mm | - | 660 W/m² | - |
| 1777559266 | 15.56° C | 49% | 1017.6 hPa | 0 mm | - | 644 W/m² | - |
| 1777558961 | 15° C | 49% | 1017.3 hPa | 0 mm | - | 628 W/m² | - |
| 1777558657 | 15° C | 51% | 1017.4 hPa | 0 mm | - | 611 W/m² | - |
| 1777558353 | 15° C | 50% | 1017.2 hPa | 0 mm | - | 592 W/m² | - |
| 1777558050 | 14.44° C | 51% | 1017.2 hPa | 0 mm | - | 575 W/m² | - |
| 1777557746 | 14.44° C | 51% | 1017.1 hPa | 0 mm | - | 557 W/m² | - |
| 1777557443 | 14.44° C | 50% | 1017.2 hPa | 0 mm | - | 312 W/m² | - |
| 1777557139 | 14.44° C | 50% | 1017 hPa | 0 mm | - | 64 W/m² | - |
| 1777556835 | 14.44° C | 51% | 1017 hPa | 0 mm | - | 62 W/m² | - |
| 1777556531 | 14.44° C | 53% | 1017 hPa | 0 mm | - | 58 W/m² | - |
| 1777556231 | 13.89° C | 56% | 1016.8 hPa | 0 mm | - | 99 W/m² | - |
| 1777555926 | 13.89° C | 56% | 1016.9 hPa | 0 mm | - | 56 W/m² | - |
| 1777555622 | 13.89° C | 56% | 1017.3 hPa | 0 mm | - | 53 W/m² | - |
| 1777555319 | 13.89° C | 59% | 1017.2 hPa | 0 mm | - | 52 W/m² | - |
| 1777555016 | 13.89° C | 59% | 1016.9 hPa | 0 mm | - | 51 W/m² | - |
| 1777554713 | 13.33° C | 61% | 1016.8 hPa | 0 mm | - | 51 W/m² | - |
| 1777554410 | 13.33° C | 62% | 1017 hPa | 0 mm | - | 49 W/m² | - |
| 1777554106 | 12.78° C | 63% | 1017 hPa | 0 mm | - | 48 W/m² | - |
| 1777553803 | 12.78° C | 65% | 1017.1 hPa | 0 mm | - | 51 W/m² | - |
| 1777553500 | 12.78° C | 67% | 1017.2 hPa | 0 mm | - | 47 W/m² | - |
* Rain latest hour (hover to see other rain measurements)
** Current wind speed in m/s (hover to see current wind gust speed)